OneWeb SL0444

operational
NORAD ID: 51638 Int'l Des: 2022-012 Owner: ONEWEBN Country: UK Constellation: oneweb
LEOCIRCULARPOLARONEWEB_TYPE

关于 OneWeb SL0444

正在加载描述...

实时位置

正在加载3D地球...

即将过境

高度历史

Altitude vs Time

uPlot chart will show altitude changes over time

两行轨道根数

1 51638U 22012S 25307.61230855 .00000219 00000-0 59137-3 0 9997
2 51638 87.8779 81.2412 0001573 100.3278 259.8027 13.10368963179792
Epoch: Nov 3, 2025 • Age: 15 hours

当前状态

高度 1234.4 km
速度 7.24 km/s
星下点 86.50°N, 92.86°E
发射日期 Feb 10, 2022
运行时间 3.7 years
类型 internet

技术详情

分类 Payload
质量 148.00 kg
干质量 140.00 kg
总质量 148.00 kg
长度 1.30 m
直径 1.00 m
跨度 5.00 m
形状 Trapezoid+2 pan
制造商 ONEWUS
平台类型 ARROW
阶段状态 In Orbit
所有者/国家 ONEWEBN/UK

大型星座

Loading constellations...